Flag for Greenland Weather past 2 weeks in Ittoqqortoormiit, Greenland

Now
26 °F

Partly sunny.


Feels Like: 26 °F
Forecast: 21 / 31 °F
Wind: 2 mph from West

Location: Scoresbysund

Current Time: May 25, 2015 at 6:37:32 AM

Latest Report: May 25, 2015 at 5:00 AM


Visibility: 31 mi

Pressure: 30.03 "Hg

Humidity: 73%

Dew point: 18 °F

Location of IttoqqortoormiitLocation

Historic Weather in Ittoqqortoormiit — Graph

°F

Ittoqqortoormiit temperature yesterday

Maximum temperature yesterday: 35 °F (at 8:00 PM)
Minimum temperature yesterday: 31 °F (at 4:00 AM)
Average temperature yesterday: 32 °F

Past Weeks' High & Low Weather Summary

 TemperatureHumidityPressure
High41 °F (May 18, 1:00 PM)100% (May 19, 10:00 PM)30.09 "Hg (May 19, 10:00 PM)
Low15 °F (May 11, 4:00 AM)43% (May 24, 10:00 PM)29.55 "Hg (May 23, 11:00 PM)
Average27 °F86%29.84 "Hg
* Reported May 10 4:00 AM — May 25 4:00 AM, Ittoqqortoormiit, Weather by CustomWeather, © 2015

Note: Actual official high and low records may vary slightly from our data, if they occured in-between our weather recording intervals... More about our weather records

Advertising

Ittoqqortoormiit weather history for previous 24 hours

 ConditionsComfort  
Time TempWeatherWind HumidityBarometerVisibility
4:00 AM
Mon, May 25
27 °FScattered clouds.2 mph73%30.02 "Hg31 mi
3:00 AM31 °FPartly sunny.3 mph51%30.01 "Hg31 mi
2:00 AM32 °FOvercast.2 mph46%30.01 "Hg31 mi
1:00 AM32 °FOvercast.2 mph59%30.01 "Hg31 mi
12:00 AM32 °FOvercast.10 mph54%30.01 "Hg31 mi
11:00 PM
Sun, May 24
34 °FOvercast.18 mph43%29.98 "Hg31 mi
10:00 PM34 °FOvercast.15 mph43%29.98 "Hg31 mi
8:00 PM35 °FOvercast.13 mph51%29.93 "Hg31 mi
7:00 PM34 °FOvercast.10 mph67%29.93 "Hg31 mi
6:00 PM32 °FLight snow. Overcast.20 mph85%29.90 "Hg4 mi
5:00 PM32 °FHeavy snow. Overcast.23 mph88%29.88 "Hg6 mi
4:00 PM32 °FLight snow. Overcast.24 mph90%29.86 "Hg2 mi
3:00 PM32 °FLight snow. Overcast.23 mph92%29.83 "Hg1 mi
2:00 PM32 °FLight snow. Overcast.24 mph92%29.82 "Hg1 mi
1:00 PM32 °FLight snow. Overcast.23 mph93%29.80 "Hg1 mi
12:00 PM32 °FLight snow. Overcast.17 mph94%29.79 "Hg1 mi
11:00 AM32 °FLight snow. Overcast.15 mph92%29.77 "Hg2 mi
10:00 AM32 °FLight snow. Overcast.24 mph90%29.73 "Hg2 mi
9:00 AM32 °FLight snow. Overcast.23 mph92%29.71 "Hg2 mi
8:00 AM32 °FLight snow. Overcast.26 mph95%29.67 "Hg1 mi
7:00 AM32 °FLight snow. Overcast.21 mph94%29.66 "Hg1 mi
6:00 AM32 °FLight snow. Overcast.17 mph92%29.62 "Hg2 mi
Weather by CustomWeather, © 2015

See weather overviewHow to use our weather pages